Year,Month,Day,Hour,Minute,Value (Times are PST for temperature in C)
2011,10,15,00,00,6.40
2011,10,15,00,01,6.40
2011,10,15,00,02,6.50
2011,10,15,00,03,6.50
2011,10,15,00,04,6.50
2011,10,15,00,05,6.50
2011,10,15,00,06,6.50
2011,10,15,00,07,6.50
2011,10,15,00,08,6.60
2011,10,15,00,09,6.60
2011,10,15,00,10,6.60
2011,10,15,00,11,6.60
2011,10,15,00,12,6.60
2011,10,15,00,13,6.60
2011,10,15,00,14,6.60
2011,10,15,00,15,6.60
2011,10,15,00,16,6.60
2011,10,15,00,17,6.60
2011,10,15,00,18,6.60
2011,10,15,00,19,6.60
2011,10,15,00,20,6.60
2011,10,15,00,21,6.60
2011,10,15,00,22,6.60
2011,10,15,00,23,6.60
2011,10,15,00,24,6.60
2011,10,15,00,25,6.60
2011,10,15,00,26,6.50
2011,10,15,00,27,6.50
2011,10,15,00,28,6.50
2011,10,15,00,29,6.50
2011,10,15,00,30,6.50
2011,10,15,00,31,6.50
2011,10,15,00,32,6.50
2011,10,15,00,33,6.50
2011,10,15,00,34,6.50
2011,10,15,00,35,6.50
2011,10,15,00,36,6.50
2011,10,15,00,37,6.50
2011,10,15,00,38,6.50
2011,10,15,00,39,6.50
2011,10,15,00,40,6.40
2011,10,15,00,41,6.40
2011,10,15,00,42,6.40
2011,10,15,00,43,6.50
2011,10,15,00,44,6.50
2011,10,15,00,45,6.40
2011,10,15,00,46,6.40
2011,10,15,00,47,6.50
2011,10,15,00,48,6.50
2011,10,15,00,49,6.50
2011,10,15,00,50,6.50
2011,10,15,00,51,6.50
2011,10,15,00,52,6.50
2011,10,15,00,53,6.50
2011,10,15,00,54,6.60
2011,10,15,00,55,6.60
2011,10,15,00,56,6.60
2011,10,15,00,57,6.60
2011,10,15,00,58,6.60
2011,10,15,00,59,6.60
2011,10,15,01,00,6.60
2011,10,15,01,01,6.60
2011,10,15,01,02,6.70
2011,10,15,01,03,6.70
2011,10,15,01,04,6.70
2011,10,15,01,05,6.70
2011,10,15,01,06,6.70
2011,10,15,01,07,6.70
2011,10,15,01,08,6.70
2011,10,15,01,09,6.70
2011,10,15,01,10,6.70
2011,10,15,01,11,6.70
2011,10,15,01,12,6.70
2011,10,15,01,13,6.70
2011,10,15,01,14,6.70
2011,10,15,01,15,6.70
2011,10,15,01,16,6.70
2011,10,15,01,17,6.70
2011,10,15,01,18,6.70
2011,10,15,01,19,6.70
2011,10,15,01,20,6.70
2011,10,15,01,21,6.60
2011,10,15,01,22,6.60
2011,10,15,01,23,6.60
2011,10,15,01,24,6.70
2011,10,15,01,25,6.60
2011,10,15,01,26,6.60
2011,10,15,01,27,6.60
2011,10,15,01,28,6.60
2011,10,15,01,29,6.60
2011,10,15,01,30,6.60
2011,10,15,01,31,6.60
2011,10,15,01,32,6.60
2011,10,15,01,33,6.60
2011,10,15,01,34,6.60
2011,10,15,01,35,6.60
2011,10,15,01,36,6.60
2011,10,15,01,37,6.60
2011,10,15,01,38,6.60
2011,10,15,01,39,6.60
2011,10,15,01,40,6.60
2011,10,15,01,41,6.60
2011,10,15,01,42,6.60
2011,10,15,01,43,6.60
2011,10,15,01,44,6.60
2011,10,15,01,45,6.60
2011,10,15,01,46,6.60
2011,10,15,01,47,6.60
2011,10,15,01,48,6.60
2011,10,15,01,49,6.60
2011,10,15,01,50,6.60
2011,10,15,01,51,6.60
2011,10,15,01,52,6.60
2011,10,15,01,53,6.60
2011,10,15,01,54,6.60
2011,10,15,01,55,6.60
2011,10,15,01,56,6.60
2011,10,15,01,57,6.60
2011,10,15,01,58,6.60
2011,10,15,01,59,6.60
2011,10,15,02,00,6.60
2011,10,15,02,01,6.60
2011,10,15,02,02,6.60
2011,10,15,02,03,6.60
2011,10,15,02,04,6.60
2011,10,15,02,05,6.50
2011,10,15,02,06,6.50
2011,10,15,02,07,6.50
2011,10,15,02,08,6.50
2011,10,15,02,09,6.50
2011,10,15,02,10,6.50
2011,10,15,02,11,6.50
2011,10,15,02,12,6.50
2011,10,15,02,13,6.40
2011,10,15,02,14,6.40
2011,10,15,02,15,6.40
2011,10,15,02,16,6.40
2011,10,15,02,17,6.40
2011,10,15,02,18,6.40
2011,10,15,02,19,6.40
2011,10,15,02,20,6.30
2011,10,15,02,21,6.30
2011,10,15,02,22,6.30
2011,10,15,02,23,6.30
2011,10,15,02,24,6.30
2011,10,15,02,25,6.30
2011,10,15,02,26,6.30
2011,10,15,02,27,6.20
2011,10,15,02,28,6.20
2011,10,15,02,29,6.20
2011,10,15,02,30,6.20
2011,10,15,02,31,6.20
2011,10,15,02,32,6.10
2011,10,15,02,33,6.10
2011,10,15,02,34,6.10
2011,10,15,02,35,6.10
2011,10,15,02,36,6.00
2011,10,15,02,37,6.00
2011,10,15,02,38,5.90
2011,10,15,02,39,5.90
2011,10,15,02,40,5.90
2011,10,15,02,41,5.90
2011,10,15,02,42,5.90
2011,10,15,02,43,5.80
2011,10,15,02,44,5.80
2011,10,15,02,45,5.80
2011,10,15,02,46,5.80
2011,10,15,02,47,5.70
2011,10,15,02,48,5.70
2011,10,15,02,49,5.70
2011,10,15,02,50,5.70
2011,10,15,02,51,5.70
2011,10,15,02,52,5.70
2011,10,15,02,53,5.70
2011,10,15,02,54,5.70
2011,10,15,02,55,5.70
2011,10,15,02,56,5.70
2011,10,15,02,57,5.70
2011,10,15,02,58,5.70
2011,10,15,02,59,5.70
2011,10,15,03,00,5.80
2011,10,15,03,01,5.80
2011,10,15,03,02,5.80
2011,10,15,03,03,5.80
2011,10,15,03,06,5.80
2011,10,15,03,07,5.80
2011,10,15,03,08,5.80
2011,10,15,03,09,5.80
2011,10,15,03,10,5.80
2011,10,15,03,11,5.80
2011,10,15,03,12,5.70
2011,10,15,03,13,5.70
2011,10,15,03,14,5.70
2011,10,15,03,15,5.70
2011,10,15,03,16,5.70
2011,10,15,03,17,5.60
2011,10,15,03,18,5.60
2011,10,15,03,19,5.60
2011,10,15,03,20,5.60
2011,10,15,03,21,5.60
2011,10,15,03,22,5.60
2011,10,15,03,23,5.60
2011,10,15,03,24,5.60
2011,10,15,03,25,5.60
2011,10,15,03,26,5.60
2011,10,15,03,27,5.60
2011,10,15,03,28,5.60
2011,10,15,03,29,5.60
2011,10,15,03,30,5.60
2011,10,15,03,31,5.60
2011,10,15,03,32,5.60
2011,10,15,03,33,5.60
2011,10,15,03,34,5.60
2011,10,15,03,35,5.60
2011,10,15,03,36,5.60
2011,10,15,03,37,5.60
2011,10,15,03,38,5.60
2011,10,15,03,39,5.60
2011,10,15,03,40,5.60
2011,10,15,03,41,5.60
2011,10,15,03,42,5.60
2011,10,15,03,43,5.60
2011,10,15,03,44,5.60
2011,10,15,03,45,5.60
2011,10,15,03,46,5.60
2011,10,15,03,47,5.60
2011,10,15,03,48,5.60
2011,10,15,03,49,5.60
2011,10,15,03,50,5.60
2011,10,15,03,51,5.60
2011,10,15,03,52,5.50
2011,10,15,03,53,5.50
2011,10,15,03,54,5.50
2011,10,15,03,55,5.40
2011,10,15,03,56,5.40
2011,10,15,03,57,5.40
2011,10,15,03,58,5.30
2011,10,15,03,59,5.30
2011,10,15,04,00,5.30
2011,10,15,04,01,5.30
2011,10,15,04,02,5.30
2011,10,15,04,03,5.20
2011,10,15,04,04,5.20
2011,10,15,04,05,5.20
2011,10,15,04,06,5.20
2011,10,15,04,07,5.20
2011,10,15,04,08,5.20
2011,10,15,04,09,5.20
2011,10,15,04,10,5.20
2011,10,15,04,11,5.20
2011,10,15,04,12,5.20
2011,10,15,04,13,5.20
2011,10,15,04,14,5.20
2011,10,15,04,15,5.10
2011,10,15,04,16,5.10
2011,10,15,04,17,5.10
2011,10,15,04,18,5.10
2011,10,15,04,19,5.10
2011,10,15,04,20,5.10
2011,10,15,04,21,5.10
2011,10,15,04,22,5.10
2011,10,15,04,23,5.10
2011,10,15,04,24,5.10
2011,10,15,04,25,5.10
2011,10,15,04,26,5.10
2011,10,15,04,27,5.10
2011,10,15,04,28,5.10
2011,10,15,04,29,5.10
2011,10,15,04,30,5.10
2011,10,15,04,31,5.10
2011,10,15,04,32,5.10
2011,10,15,04,33,5.10
2011,10,15,04,34,5.10
2011,10,15,04,35,5.10
2011,10,15,04,36,5.10
2011,10,15,04,37,5.10
2011,10,15,04,38,5.10
2011,10,15,04,39,5.10
2011,10,15,04,40,5.10
2011,10,15,04,41,5.10
2011,10,15,04,42,5.00
2011,10,15,04,43,5.00
2011,10,15,04,44,5.00
2011,10,15,04,45,5.00
2011,10,15,04,46,5.00
2011,10,15,04,47,5.00
2011,10,15,04,48,5.00
2011,10,15,04,49,5.00
2011,10,15,04,50,5.00
2011,10,15,04,51,5.10
2011,10,15,04,52,5.10
2011,10,15,04,53,5.10
2011,10,15,04,54,5.10
2011,10,15,04,55,5.10
2011,10,15,04,56,5.10
2011,10,15,04,57,5.10
2011,10,15,04,58,5.10
2011,10,15,04,59,5.10
2011,10,15,05,00,5.10
2011,10,15,05,01,5.10
2011,10,15,05,02,5.10
2011,10,15,05,03,5.10
2011,10,15,05,04,5.10
2011,10,15,05,05,5.00
2011,10,15,05,06,5.00
2011,10,15,05,07,5.00
2011,10,15,05,08,5.00
2011,10,15,05,09,4.90
2011,10,15,05,10,4.90
2011,10,15,05,11,4.90
2011,10,15,05,12,4.90
2011,10,15,05,13,4.90
2011,10,15,05,14,4.90
2011,10,15,05,15,4.90
2011,10,15,05,16,4.90
2011,10,15,05,17,4.80
2011,10,15,05,18,4.80
2011,10,15,05,19,4.80
2011,10,15,05,20,4.80
2011,10,15,05,21,4.80
2011,10,15,05,22,4.80
2011,10,15,05,23,4.80
2011,10,15,05,24,4.80
2011,10,15,05,25,4.80
2011,10,15,05,26,4.80
2011,10,15,05,27,4.80
2011,10,15,05,28,4.80
2011,10,15,05,29,4.70
2011,10,15,05,30,4.70
2011,10,15,05,31,4.70
2011,10,15,05,32,4.70
2011,10,15,05,33,4.70
2011,10,15,05,34,4.70
2011,10,15,05,35,4.70
2011,10,15,05,36,4.70
2011,10,15,05,37,4.70
2011,10,15,05,38,4.70
2011,10,15,05,39,4.70
2011,10,15,05,40,4.70
2011,10,15,05,41,4.70
2011,10,15,05,42,4.70
2011,10,15,05,43,4.70
2011,10,15,05,44,4.70
2011,10,15,05,45,4.70
2011,10,15,05,46,4.70
2011,10,15,05,47,4.70
2011,10,15,05,48,4.70
2011,10,15,05,49,4.70
2011,10,15,05,50,4.70
2011,10,15,05,51,4.70
2011,10,15,05,52,4.70
2011,10,15,05,53,4.70
2011,10,15,05,54,4.70
2011,10,15,05,55,4.70
2011,10,15,05,56,4.60
2011,10,15,05,57,4.60
2011,10,15,05,58,4.60
2011,10,15,05,59,4.60
2011,10,15,06,00,4.50
2011,10,15,06,01,4.50
2011,10,15,06,02,4.40
2011,10,15,06,03,4.30
2011,10,15,06,04,4.30
2011,10,15,06,05,4.20
2011,10,15,06,06,4.10
2011,10,15,06,07,4.10
2011,10,15,06,08,4.00
2011,10,15,06,09,4.00
2011,10,15,06,10,3.90
2011,10,15,06,11,3.80
2011,10,15,06,12,3.80
2011,10,15,06,13,3.80
2011,10,15,06,14,3.70
2011,10,15,06,15,3.70
2011,10,15,06,16,3.60
2011,10,15,06,17,3.50
2011,10,15,06,18,3.50
2011,10,15,06,19,3.40
2011,10,15,06,20,3.40
2011,10,15,06,21,3.40
2011,10,15,06,22,3.40
2011,10,15,06,23,3.40
2011,10,15,06,24,3.40
2011,10,15,06,25,3.50
2011,10,15,06,26,3.50
2011,10,15,06,27,3.50
2011,10,15,06,28,3.50
2011,10,15,06,29,3.50
2011,10,15,06,30,3.50
2011,10,15,06,31,3.50
2011,10,15,06,32,3.50
2011,10,15,06,33,3.50
2011,10,15,06,34,3.50
2011,10,15,06,35,3.40
2011,10,15,06,36,3.40
2011,10,15,06,37,3.40
2011,10,15,06,38,3.30
2011,10,15,06,39,3.30
2011,10,15,06,40,3.30
2011,10,15,06,41,3.30
2011,10,15,06,42,3.20
2011,10,15,06,43,3.20
2011,10,15,06,44,3.10
2011,10,15,06,45,3.10
2011,10,15,06,46,3.00
2011,10,15,06,47,3.00
2011,10,15,06,48,2.90
2011,10,15,06,49,2.90
2011,10,15,06,50,2.90
2011,10,15,06,51,2.80
2011,10,15,06,52,2.80
2011,10,15,06,53,2.70
2011,10,15,06,54,2.70
2011,10,15,06,55,2.70
2011,10,15,06,56,2.70
2011,10,15,06,57,2.70
2011,10,15,06,58,2.70
2011,10,15,06,59,2.70
2011,10,15,07,00,2.70
2011,10,15,07,01,2.70
2011,10,15,07,02,2.70
2011,10,15,07,03,2.70
2011,10,15,07,04,2.70
2011,10,15,07,05,2.70
2011,10,15,07,06,2.70
2011,10,15,07,07,2.70
2011,10,15,07,08,2.60
2011,10,15,07,09,2.60
2011,10,15,07,10,2.60
2011,10,15,07,11,2.60
2011,10,15,07,12,2.50
2011,10,15,07,13,2.50
2011,10,15,07,14,2.40
2011,10,15,07,15,2.40
2011,10,15,07,16,2.40
2011,10,15,07,17,2.30
2011,10,15,07,18,2.30
2011,10,15,07,19,2.30
2011,10,15,07,20,2.30
2011,10,15,07,21,2.30
2011,10,15,07,22,2.20
2011,10,15,07,23,2.20
2011,10,15,07,24,2.20
2011,10,15,07,25,2.20
2011,10,15,07,26,2.20
2011,10,15,07,27,2.20
2011,10,15,07,28,2.10
2011,10,15,07,29,2.10
2011,10,15,07,30,2.10
2011,10,15,07,31,2.10
2011,10,15,07,32,2.10
2011,10,15,07,33,2.10
2011,10,15,07,34,2.10
2011,10,15,07,35,2.10
2011,10,15,07,36,2.10
2011,10,15,07,37,2.00
2011,10,15,07,38,2.00
2011,10,15,07,39,1.90
2011,10,15,07,40,1.90
2011,10,15,07,41,1.90
2011,10,15,07,42,1.90
2011,10,15,07,43,1.90
2011,10,15,07,44,1.90
2011,10,15,07,45,1.90
2011,10,15,07,46,1.80
2011,10,15,07,47,1.80
2011,10,15,07,48,1.80
2011,10,15,07,49,1.80
2011,10,15,07,50,1.80
2011,10,15,07,51,1.80
2011,10,15,07,52,1.80
2011,10,15,07,53,1.80
2011,10,15,07,54,1.80
2011,10,15,07,55,1.80
2011,10,15,07,56,1.80
2011,10,15,07,57,1.80
2011,10,15,07,58,1.70
2011,10,15,07,59,1.70
2011,10,15,08,00,1.70
2011,10,15,08,01,1.70
2011,10,15,08,02,1.80
2011,10,15,08,03,1.80
2011,10,15,08,04,1.80
2011,10,15,08,05,1.80
2011,10,15,08,06,1.80
2011,10,15,08,07,1.70
2011,10,15,08,08,1.80
2011,10,15,08,09,1.80
2011,10,15,08,10,1.80
2011,10,15,08,11,1.80
2011,10,15,08,12,1.80
2011,10,15,08,13,1.80
2011,10,15,08,14,1.80
2011,10,15,08,15,1.80
2011,10,15,08,16,1.80
2011,10,15,08,17,1.90
2011,10,15,08,18,1.90
2011,10,15,08,19,1.90
2011,10,15,08,20,1.90
2011,10,15,08,21,1.90
2011,10,15,08,22,2.00
2011,10,15,08,23,2.00
2011,10,15,08,24,2.00
2011,10,15,08,25,2.10
2011,10,15,08,26,2.10
2011,10,15,08,27,2.20
2011,10,15,08,28,2.20
2011,10,15,08,29,2.20
2011,10,15,08,30,2.30
2011,10,15,08,31,2.30
2011,10,15,08,32,2.40
2011,10,15,08,33,2.40
2011,10,15,08,34,2.50
2011,10,15,08,35,2.50
2011,10,15,08,36,2.60
2011,10,15,08,37,2.60
2011,10,15,08,38,2.60
2011,10,15,08,39,2.70
2011,10,15,08,40,2.70
2011,10,15,08,41,2.70
2011,10,15,08,42,2.80
2011,10,15,08,43,2.80
2011,10,15,08,44,2.80
2011,10,15,08,45,2.80
2011,10,15,08,46,2.90
2011,10,15,08,47,2.90
2011,10,15,08,48,3.00
2011,10,15,08,49,3.00
2011,10,15,08,50,3.10
2011,10,15,08,51,3.10
2011,10,15,08,52,3.20
2011,10,15,08,53,3.20
2011,10,15,08,54,3.30
2011,10,15,08,55,3.30
2011,10,15,08,56,3.30
2011,10,15,08,57,3.40
2011,10,15,08,58,3.40
2011,10,15,08,59,3.50
2011,10,15,09,00,3.60
2011,10,15,09,01,3.70
2011,10,15,09,02,3.70
2011,10,15,09,03,3.80
2011,10,15,09,04,3.90
2011,10,15,09,05,3.90
2011,10,15,09,06,4.00
2011,10,15,09,07,4.10
2011,10,15,09,08,4.20
2011,10,15,09,09,4.30
2011,10,15,09,10,4.40
2011,10,15,09,11,4.60
2011,10,15,09,12,4.60
2011,10,15,09,13,4.70
2011,10,15,09,14,4.80
2011,10,15,09,15,4.80
2011,10,15,09,16,4.90
2011,10,15,09,17,4.90
2011,10,15,09,18,5.00
2011,10,15,09,19,5.00
2011,10,15,09,20,5.10
2011,10,15,09,21,5.20
2011,10,15,09,22,5.20
2011,10,15,09,23,5.30
2011,10,15,09,24,5.30
2011,10,15,09,25,5.40
2011,10,15,09,26,5.50
2011,10,15,09,27,5.50
2011,10,15,09,28,5.70
2011,10,15,09,29,5.70
2011,10,15,09,30,5.80
2011,10,15,09,31,5.90
2011,10,15,09,32,6.00
2011,10,15,09,33,6.10
2011,10,15,09,34,6.20
2011,10,15,09,35,6.30
2011,10,15,09,36,6.40
2011,10,15,09,37,6.60
2011,10,15,09,38,6.60
2011,10,15,09,39,6.70
2011,10,15,09,40,6.80
2011,10,15,09,41,6.90
2011,10,15,09,42,7.00
2011,10,15,09,43,7.00
2011,10,15,09,44,7.10
2011,10,15,09,45,7.10
2011,10,15,09,46,7.20
2011,10,15,09,47,7.30
2011,10,15,09,48,7.40
2011,10,15,09,49,7.50
2011,10,15,09,50,7.60
2011,10,15,09,51,7.60
2011,10,15,09,52,7.70
2011,10,15,09,53,7.70
2011,10,15,09,54,7.70
2011,10,15,09,55,7.70
2011,10,15,09,56,7.70
2011,10,15,09,57,7.80
2011,10,15,09,58,7.80
2011,10,15,09,59,7.80
2011,10,15,10,00,7.80
2011,10,15,10,01,7.90
2011,10,15,10,02,8.00
2011,10,15,10,03,8.00
2011,10,15,10,04,8.10
2011,10,15,10,05,8.20
2011,10,15,10,06,8.30
2011,10,15,10,07,8.30
2011,10,15,10,08,8.40
2011,10,15,10,09,8.40
2011,10,15,10,10,8.40
2011,10,15,10,11,8.40
2011,10,15,10,12,8.50
2011,10,15,10,13,8.50
2011,10,15,10,14,8.60
2011,10,15,10,15,8.50
2011,10,15,10,16,8.50
2011,10,15,10,17,8.50
2011,10,15,10,18,8.50
2011,10,15,10,19,8.40
2011,10,15,10,20,8.50
2011,10,15,10,21,8.50
2011,10,15,10,22,8.50
2011,10,15,10,23,8.50
2011,10,15,10,24,8.50
2011,10,15,10,25,8.50
2011,10,15,10,26,8.60
2011,10,15,10,27,8.60
2011,10,15,10,28,8.60
2011,10,15,10,29,8.60
2011,10,15,10,30,8.70
2011,10,15,10,31,8.70
2011,10,15,10,32,8.70
2011,10,15,10,33,8.70
2011,10,15,10,34,8.80
2011,10,15,10,35,8.80
2011,10,15,10,36,8.80
2011,10,15,10,37,8.90
2011,10,15,10,38,8.80
2011,10,15,10,39,8.80
2011,10,15,10,40,8.80
2011,10,15,10,41,8.80
2011,10,15,10,42,8.90
2011,10,15,10,43,8.90
2011,10,15,10,44,8.90
2011,10,15,10,45,9.00
2011,10,15,10,46,9.00
2011,10,15,10,47,9.10
2011,10,15,10,48,9.10
2011,10,15,10,49,9.20
2011,10,15,10,50,9.20
2011,10,15,10,51,9.20
2011,10,15,10,52,9.20
2011,10,15,10,53,9.30
2011,10,15,10,54,9.30
2011,10,15,10,55,9.40
2011,10,15,10,56,9.40
2011,10,15,10,57,9.40
2011,10,15,10,58,9.40
2011,10,15,10,59,9.40
2011,10,15,11,00,9.40
2011,10,15,11,01,9.40
2011,10,15,11,02,9.40
2011,10,15,11,03,9.50
2011,10,15,11,04,9.60
2011,10,15,11,05,9.60
2011,10,15,11,06,9.70
2011,10,15,11,07,9.70
2011,10,15,11,08,9.80
2011,10,15,11,09,9.80
2011,10,15,11,10,9.80
2011,10,15,11,11,9.80
2011,10,15,11,12,9.80
2011,10,15,11,13,9.80
2011,10,15,11,14,9.80
2011,10,15,11,15,9.90
2011,10,15,11,16,9.90
2011,10,15,11,17,10.00
2011,10,15,11,18,10.00
2011,10,15,11,19,10.10
2011,10,15,11,20,10.10
2011,10,15,11,21,10.10
2011,10,15,11,22,10.10
2011,10,15,11,23,10.10
2011,10,15,11,24,10.10
2011,10,15,11,25,10.20
2011,10,15,11,26,10.20
2011,10,15,11,27,10.10
2011,10,15,11,28,10.10
2011,10,15,11,29,10.10
2011,10,15,11,30,10.10
2011,10,15,11,31,10.10
2011,10,15,11,32,10.10
2011,10,15,11,33,10.20
2011,10,15,11,34,10.20
2011,10,15,11,35,10.20
2011,10,15,11,36,10.20
2011,10,15,11,37,10.20
2011,10,15,11,38,10.30
2011,10,15,11,39,10.30
2011,10,15,11,40,10.40
2011,10,15,11,41,10.40
2011,10,15,11,42,10.40
2011,10,15,11,43,10.40
2011,10,15,11,44,10.40
2011,10,15,11,45,10.30
2011,10,15,11,46,10.30
2011,10,15,11,47,10.30
2011,10,15,11,48,10.30
2011,10,15,11,49,10.30
2011,10,15,11,50,10.30
2011,10,15,11,51,10.50
2011,10,15,11,52,10.50
2011,10,15,11,53,10.60
2011,10,15,11,54,10.70
2011,10,15,11,55,10.70
2011,10,15,11,56,10.80
2011,10,15,11,57,10.80
2011,10,15,11,58,10.80
2011,10,15,11,59,10.80
2011,10,15,12,00,10.80
2011,10,15,12,01,10.80
2011,10,15,12,02,10.80
2011,10,15,12,03,10.80
2011,10,15,12,04,10.80
2011,10,15,12,05,10.80
2011,10,15,12,06,10.70
2011,10,15,12,07,10.70
2011,10,15,12,08,10.80
2011,10,15,12,09,10.80
2011,10,15,12,10,10.80
2011,10,15,12,11,10.80
2011,10,15,12,12,10.90
2011,10,15,12,13,11.00
2011,10,15,12,14,11.10
2011,10,15,12,15,11.10
2011,10,15,12,16,11.10
2011,10,15,12,17,11.10
2011,10,15,12,18,11.10
2011,10,15,12,19,11.10
2011,10,15,12,20,11.00
2011,10,15,12,21,10.90
2011,10,15,12,22,10.80
2011,10,15,12,23,10.80
2011,10,15,12,24,10.80
2011,10,15,12,25,10.80
2011,10,15,12,26,10.80
2011,10,15,12,27,10.90
2011,10,15,12,28,10.90
2011,10,15,12,29,10.90
2011,10,15,12,30,11.00
2011,10,15,12,31,11.10
2011,10,15,12,32,11.10
2011,10,15,12,33,11.20
2011,10,15,12,34,11.20
2011,10,15,12,35,11.20
2011,10,15,12,36,11.20
2011,10,15,12,37,11.20
2011,10,15,12,38,11.20
2011,10,15,12,39,11.30
2011,10,15,12,40,11.30
2011,10,15,12,41,11.20
2011,10,15,12,42,11.20
2011,10,15,12,43,11.30
2011,10,15,12,44,11.30
2011,10,15,12,45,11.30
2011,10,15,12,46,11.30
2011,10,15,12,47,11.20
2011,10,15,12,48,11.20
2011,10,15,12,49,11.10
2011,10,15,12,50,11.10
2011,10,15,12,51,11.00
2011,10,15,12,52,11.00
2011,10,15,12,53,11.00
2011,10,15,12,54,10.90
2011,10,15,12,55,10.90
2011,10,15,12,56,10.90
2011,10,15,12,57,10.90
2011,10,15,12,58,10.90
2011,10,15,12,59,10.90
2011,10,15,13,00,10.90
2011,10,15,13,01,10.90
2011,10,15,13,02,10.90
2011,10,15,13,03,10.90
2011,10,15,13,04,10.90
2011,10,15,13,05,10.90
2011,10,15,13,06,10.80
2011,10,15,13,07,10.90
2011,10,15,13,08,10.90
2011,10,15,13,09,10.90
2011,10,15,13,10,10.90
2011,10,15,13,11,10.90
2011,10,15,13,12,11.00
2011,10,15,13,13,11.00
2011,10,15,13,14,11.10
2011,10,15,13,15,11.20
2011,10,15,13,16,11.30
2011,10,15,13,17,11.30
2011,10,15,13,18,11.40
2011,10,15,13,19,11.40
2011,10,15,13,20,11.50
2011,10,15,13,21,11.50
2011,10,15,13,22,11.50
2011,10,15,13,23,11.50
2011,10,15,13,24,11.40
2011,10,15,13,25,11.40
2011,10,15,13,26,11.40
2011,10,15,13,27,11.50
2011,10,15,13,28,11.40
2011,10,15,13,29,11.40
2011,10,15,13,30,11.40
2011,10,15,13,31,11.30
2011,10,15,13,32,11.30
2011,10,15,13,33,11.30
2011,10,15,13,34,11.20
2011,10,15,13,35,11.20
2011,10,15,13,36,11.20
2011,10,15,13,37,11.20
2011,10,15,13,38,11.20
2011,10,15,13,39,11.20
2011,10,15,13,40,11.20
2011,10,15,13,41,11.30
2011,10,15,13,42,11.30
2011,10,15,13,43,11.30
2011,10,15,13,44,11.30
2011,10,15,13,45,11.30
2011,10,15,13,46,11.30
2011,10,15,13,47,11.30
2011,10,15,13,48,11.30
2011,10,15,13,49,11.20
2011,10,15,13,50,11.20
2011,10,15,13,51,11.10
2011,10,15,13,52,11.10
2011,10,15,13,53,11.10
2011,10,15,13,54,11.00
2011,10,15,13,55,11.00
2011,10,15,13,56,10.90
2011,10,15,13,57,10.90
2011,10,15,13,58,10.90
2011,10,15,13,59,11.00
2011,10,15,14,00,11.00
2011,10,15,14,01,11.10
2011,10,15,14,02,11.10
2011,10,15,14,03,11.10
2011,10,15,14,04,11.00
2011,10,15,14,05,11.00
2011,10,15,14,06,10.90
2011,10,15,14,07,11.00
2011,10,15,14,08,10.90
2011,10,15,14,09,10.90
2011,10,15,14,10,11.00
2011,10,15,14,11,11.00
2011,10,15,14,12,11.10
2011,10,15,14,13,11.10
2011,10,15,14,14,11.10
2011,10,15,14,15,11.10
2011,10,15,14,16,11.10
2011,10,15,14,17,11.20
2011,10,15,14,18,11.30
2011,10,15,14,19,11.40
2011,10,15,14,20,11.40
2011,10,15,14,21,11.50
2011,10,15,14,22,11.50
2011,10,15,14,23,11.50
2011,10,15,14,24,11.40
2011,10,15,14,25,11.40
2011,10,15,14,26,11.40
2011,10,15,14,27,11.40
2011,10,15,14,28,11.30
2011,10,15,14,29,11.30
2011,10,15,14,30,11.40
2011,10,15,14,31,11.40
2011,10,15,14,32,11.40
2011,10,15,14,33,11.40
2011,10,15,14,34,11.40
2011,10,15,14,35,11.40
2011,10,15,14,36,11.40
2011,10,15,14,37,11.40
2011,10,15,14,38,11.40
2011,10,15,14,39,11.40
2011,10,15,14,40,11.30
2011,10,15,14,41,11.30
2011,10,15,14,42,11.30
2011,10,15,14,43,11.20
2011,10,15,14,44,11.20
2011,10,15,14,45,11.20
2011,10,15,14,46,11.20
2011,10,15,14,47,11.20
2011,10,15,14,48,11.20
2011,10,15,14,49,11.20
2011,10,15,14,50,11.20
2011,10,15,14,51,11.20
2011,10,15,14,52,11.20
2011,10,15,14,53,11.20
2011,10,15,14,54,11.20
2011,10,15,14,55,11.10
2011,10,15,14,56,11.10
2011,10,15,14,57,11.10
2011,10,15,14,58,11.10
2011,10,15,14,59,11.10
2011,10,15,15,00,11.10
2011,10,15,15,01,11.10
2011,10,15,15,02,11.20
2011,10,15,15,03,11.20
2011,10,15,15,04,11.20
2011,10,15,15,05,11.30
2011,10,15,15,06,11.30
2011,10,15,15,07,11.30
2011,10,15,15,08,11.30
2011,10,15,15,09,11.30
2011,10,15,15,10,11.30
2011,10,15,15,11,11.30
2011,10,15,15,12,11.30
2011,10,15,15,13,11.40
2011,10,15,15,14,11.40
2011,10,15,15,15,11.40
2011,10,15,15,16,11.40
2011,10,15,15,17,11.40
2011,10,15,15,18,11.40
2011,10,15,15,19,11.40
2011,10,15,15,20,11.40
2011,10,15,15,21,11.40
2011,10,15,15,22,11.30
2011,10,15,15,23,11.30
2011,10,15,15,24,11.30
2011,10,15,15,25,11.30
2011,10,15,15,26,11.30
2011,10,15,15,27,11.30
2011,10,15,15,28,11.30
2011,10,15,15,29,11.30
2011,10,15,15,30,11.30
2011,10,15,15,31,11.30
2011,10,15,15,32,11.30
2011,10,15,15,33,11.40
2011,10,15,15,34,11.40
2011,10,15,15,35,11.40
2011,10,15,15,36,11.50
2011,10,15,15,37,11.50
2011,10,15,15,38,11.60
2011,10,15,15,39,11.60
2011,10,15,15,40,11.60
2011,10,15,15,41,11.70
2011,10,15,15,42,11.60
2011,10,15,15,43,11.60
2011,10,15,15,44,11.60
2011,10,15,15,45,11.70
2011,10,15,15,46,11.70
2011,10,15,15,47,11.80
2011,10,15,15,48,11.80
2011,10,15,15,49,11.80
2011,10,15,15,50,11.80
2011,10,15,15,51,11.90
2011,10,15,15,52,11.90
2011,10,15,15,53,11.90
2011,10,15,15,54,11.90
2011,10,15,15,55,11.90
2011,10,15,15,56,11.90
2011,10,15,15,57,11.90
2011,10,15,15,58,11.90
2011,10,15,15,59,11.90
2011,10,15,16,00,11.80
2011,10,15,16,01,11.80
2011,10,15,16,02,11.80
2011,10,15,16,03,11.80
2011,10,15,16,04,11.70
2011,10,15,16,05,11.70
2011,10,15,16,06,11.70
2011,10,15,16,07,11.70
2011,10,15,16,08,11.70
2011,10,15,16,09,11.70
2011,10,15,16,10,11.60
2011,10,15,16,11,11.60
2011,10,15,16,12,11.60
2011,10,15,16,13,11.60
2011,10,15,16,14,11.60
2011,10,15,16,15,11.60
2011,10,15,16,16,11.60
2011,10,15,16,17,11.60
2011,10,15,16,18,11.60
2011,10,15,16,19,11.60
2011,10,15,16,20,11.60
2011,10,15,16,21,11.60
2011,10,15,16,22,11.60
2011,10,15,16,23,11.60
2011,10,15,16,24,11.60
2011,10,15,16,25,11.60
2011,10,15,16,26,11.60
2011,10,15,16,27,11.60
2011,10,15,16,28,11.60
2011,10,15,16,29,11.60
2011,10,15,16,30,11.60
2011,10,15,16,31,11.70
2011,10,15,16,32,11.60
2011,10,15,16,33,11.60
2011,10,15,16,34,11.50
2011,10,15,16,35,11.40
2011,10,15,16,36,11.40
2011,10,15,16,37,11.40
2011,10,15,16,38,11.40
2011,10,15,16,39,11.30
2011,10,15,16,40,11.30
2011,10,15,16,41,11.40
2011,10,15,16,42,11.40
2011,10,15,16,43,11.40
2011,10,15,16,44,11.40
2011,10,15,16,45,11.40
2011,10,15,16,46,11.40
2011,10,15,16,47,11.40
2011,10,15,16,48,11.30
2011,10,15,16,49,11.30
2011,10,15,16,50,11.30
2011,10,15,16,51,11.20
2011,10,15,16,52,11.20
2011,10,15,16,53,11.20
2011,10,15,16,54,11.20
2011,10,15,16,55,11.10
2011,10,15,16,56,11.10
2011,10,15,16,57,11.10
2011,10,15,16,58,11.10
2011,10,15,16,59,11.00
2011,10,15,17,00,11.00
2011,10,15,17,01,10.90
2011,10,15,17,02,10.90
2011,10,15,17,03,10.80
2011,10,15,17,04,10.80
2011,10,15,17,05,10.80
2011,10,15,17,06,10.80
2011,10,15,17,07,10.70
2011,10,15,17,08,10.60
2011,10,15,17,09,10.60
2011,10,15,17,10,10.60
2011,10,15,17,11,10.50
2011,10,15,17,12,10.50
2011,10,15,17,13,10.40
2011,10,15,17,14,10.40
2011,10,15,17,15,10.40
2011,10,15,17,16,10.30
2011,10,15,17,17,10.30
2011,10,15,17,18,10.30
2011,10,15,17,19,10.30
2011,10,15,17,20,10.30
2011,10,15,17,21,10.30
2011,10,15,17,22,10.30
2011,10,15,17,23,10.30
2011,10,15,17,24,10.30
2011,10,15,17,25,10.30
2011,10,15,17,26,10.30
2011,10,15,17,27,10.30
2011,10,15,17,28,10.30
2011,10,15,17,29,10.20
2011,10,15,17,30,10.20
2011,10,15,17,31,10.20
2011,10,15,17,32,10.10
2011,10,15,17,33,10.10
2011,10,15,17,34,10.00
2011,10,15,17,35,10.00
2011,10,15,17,36,9.90
2011,10,15,17,37,9.90
2011,10,15,17,38,9.80
2011,10,15,17,39,9.80
2011,10,15,17,40,9.70
2011,10,15,17,41,9.60
2011,10,15,17,42,9.60
2011,10,15,17,43,9.60
2011,10,15,17,44,9.50
2011,10,15,17,45,9.40
2011,10,15,17,46,9.30
2011,10,15,17,47,9.20
2011,10,15,17,48,9.20
2011,10,15,17,49,9.10
2011,10,15,17,50,9.00
2011,10,15,17,51,8.90